Weather History for London-Corbin, KY

Change the Weather History Date:

Tuesday, February 5, 2013

  Actual Average Record
Temperature  
Mean Temperature 46 °F 37 °F  
Max Temperature 52 °F 47 °F 70 °F (2008)
Min Temperature 39 °F 28 °F 3 °F (1965)
Degree Days  
Heating Degree Days 19 28  
Month to date heating degree days 163 140  
Since 1 July heating degree days 2746 2703  
Cooling Degree Days 0 0  
Month to date cooling degree days 0 0  
Year to date cooling degree days 0 0  
Moisture  
Dew Point 32 °F    
Average Humidity 59    
Maximum Humidity 70    
Minimum Humidity 48    
Precipitation  
Precipitation T in 0.13 in 2.59 in (2004)
Month to date precipitation 0.06 0.64  
Year to date precipitation 5.30 4.18  
Sea Level Pressure  
Sea Level Pressure 29.94 in    
Wind  
Wind Speed 7 mph (SW)    
Max Wind Speed 18 mph    
Max Gust Speed 22 mph    
Visibility 10 miles    
Events Rain    
T = Trace of Precipitation, MM = Missing Value Source: NWS Daily Summary

Daily Weather History Graph

Daily Weather History Graph

Search for Another Location

Airport:

Trip Planner

Search our weather history database for the weather conditions in past years. The results will help you decide how hot, cold, wet, or windy it might be!

Date:

Astronomy

Feb. 05, 2013 Rise Set
Actual Time 7:35 AM EST 6:05 PM EST
Civil Twilight 7:08 AM EST 6:33 PM EST
Nautical Twilight 6:37 AM EST 7:03 PM EST
Astronomical Twilight 6:06 AM EST 7:34 PM EST
Moon 3:13 AM EST (2/5) 1:25 PM EST (2/5)
Length of Visible Light 11h 24m
Length of Day
10h 30m
Waning Crescent, 27% of the Moon is Illuminated
Feb 5
Waning Crescent
Feb 10
New
Feb 17
First Quarter
Feb 25
Full
Mar 4
Last Quarter

Hourly Weather History & Observations

Time (EST) Temp. Windchill Dew Point Humidity Pressure Visibility Wind Dir Wind Speed Gust Speed Precip Events Conditions
12:53 AM 43.0 °F 41.3 °F 27.0 °F 53% 29.91 in 10.0 mi SW 3.5 mph - N/A   Overcast
1:53 AM 43.0 °F 37.2 °F 30.0 °F 60% 29.92 in 10.0 mi WSW 10.4 mph - 0.00 in Rain Light Rain
2:53 AM 43.0 °F 40.3 °F 32.0 °F 65% 29.92 in 10.0 mi SW 4.6 mph - 0.00 in   Overcast
3:53 AM 42.1 °F 39.2 °F 32.0 °F 67% 29.91 in 10.0 mi South 4.6 mph - N/A   Overcast
4:53 AM 42.1 °F 40.2 °F 30.9 °F 65% 29.90 in 10.0 mi SSW 3.5 mph - N/A   Overcast
5:18 AM 41.0 °F 39.0 °F 30.2 °F 65% 29.89 in 10.0 mi SSW 3.5 mph - N/A   Overcast
5:53 AM 42.1 °F 39.2 °F 30.0 °F 62% 29.91 in 10.0 mi SSW 4.6 mph - N/A   Overcast
6:13 AM 42.8 °F 39.3 °F 30.2 °F 61% 29.90 in 10.0 mi SSW 5.8 mph - N/A   Overcast
6:53 AM 42.1 °F 38.4 °F 30.0 °F 62% 29.92 in 10.0 mi SW 5.8 mph - N/A   Overcast
7:04 AM 42.8 °F 40.1 °F 30.2 °F 61% 29.91 in 10.0 mi SW 4.6 mph - N/A   Overcast
7:53 AM 42.1 °F 38.4 °F 30.9 °F 65% 29.92 in 10.0 mi SW 5.8 mph - N/A   Overcast
8:53 AM 43.0 °F 39.5 °F 33.1 °F 68% 29.94 in 10.0 mi SW 5.8 mph - N/A   Overcast
9:13 AM 44.6 °F 40.2 °F 33.8 °F 66% 29.95 in 10.0 mi WSW 8.1 mph - N/A   Overcast
9:53 AM 44.1 °F 38.6 °F 34.0 °F 68% 29.96 in 10.0 mi WSW 10.4 mph - N/A   Overcast
10:28 AM 44.6 °F 40.7 °F 35.6 °F 71% 29.96 in 10.0 mi SW 6.9 mph - N/A   Overcast
11:00 AM 46.4 °F 40.7 °F 35.6 °F 66% 29.96 in 10.0 mi SW 12.7 mph - N/A   Mostly Cloudy
11:51 AM 48.2 °F - 35.6 °F 62% 29.96 in 10.0 mi West 11.5 mph 18.4 mph N/A   Mostly Cloudy
11:53 AM 48.0 °F - 36.0 °F 63% 29.97 in 10.0 mi WSW 10.4 mph 18.4 mph N/A   Overcast
12:53 PM 48.9 °F - 36.0 °F 61% 29.96 in 10.0 mi West 12.7 mph 21.9 mph N/A   Mostly Cloudy
1:53 PM 50.0 °F - 35.1 °F 57% 29.94 in 10.0 mi West 13.8 mph - N/A   Partly Cloudy
2:53 PM 51.1 °F - 34.0 °F 52% 29.92 in 10.0 mi WSW 9.2 mph - N/A   Clear
3:53 PM 52.0 °F - 33.1 °F 49% 29.91 in 10.0 mi WSW 11.5 mph - N/A   Clear
4:53 PM 52.0 °F - 33.1 °F 49% 29.92 in 10.0 mi WSW 6.9 mph - N/A   Clear
5:53 PM 51.1 °F - 32.0 °F 48% 29.91 in 10.0 mi WSW 8.1 mph - N/A   Clear
6:53 PM 48.9 °F - 30.9 °F 50% 29.92 in 10.0 mi SW 5.8 mph - N/A   Clear
7:53 PM 46.9 °F - 30.9 °F 54% 29.93 in 10.0 mi SW 5.8 mph - N/A   Partly Cloudy
8:53 PM 46.9 °F - 32.0 °F 56% 29.95 in 10.0 mi SW 4.6 mph - N/A   Clear
9:53 PM 42.1 °F - 32.0 °F 67% 29.99 in 10.0 mi Calm Calm - N/A   Clear
10:53 PM 39.9 °F 36.7 °F 30.9 °F 70% 30.01 in 10.0 mi West 4.6 mph - N/A   Clear
11:53 PM 42.1 °F 37.7 °F 30.9 °F 65% 30.04 in 10.0 mi WNW 6.9 mph - N/A   Clear